Terug naar catalogus

STARLINK-5884

ActiefCommunicatieVLEO
NORAD 55957·PAYLOAD·🇺🇸 United States

Gelanceerd Mar 17, 2023 vanaf Vandenberg Space Force Base

Loading…

Volgende Passages (komende 24 uur)

TLE

VersSource: CelesTrak SupGP

Epoch: Sep 15, 2026, 02:03 UTC

1 55957C 23037AV  26258.08590278  .00035961  00000+0  30133-2 0  2581
2 55957  70.0005 146.9843 0003109 263.9302  13.4398 14.98318050    16

Volg STARLINK-5884 in realtime met AllMySat

Download on the App Store